Погода в Умете

Россия / Волгоградская область     50°17′06″N   45°20′31″E
темп.,
°C
ветер,
м/с
пор.,
м/с
влажн.,
%
обл.,
%
осадки,
мм/ч
давл.,
гПа
погр.,
м
5 марта, пт
пт500:000зюз918770 0.0 1008544
03:00+1зюз9188621 0.0 1007603
06:00+1зюз9178799 0.0 1006619
09:00+1зюз81499100 0.3 1007538
12:00+2зюз613100100 0.2 1008463
15:00+1з51099100 0.5 1010364
18:00−1сз3794100 0.1 1012160
21:00−3ссз3390100 0.1 101569
6 марта, сб
сб600:00−4ссз2387100 0.0 101548
03:00−4ссв2287100 0.0 101637
06:00−4всв3486100 0.0 1015146
09:00−4в4689100 0.2 1015294
12:00−3всв5794100 0.8 1014433
15:00−3св6894100 2.6 1012568
18:00−5св6995100 1.2 1011525
21:00−5ссв51094100 2.1 1012497
7 марта, вс
вс700:00−7с349393 0.1 101383
03:00−9сз349079 0.1 101668
06:00−10зсз349312 0.0 101756
09:00−7зсз58926 0.0 1019359
12:00−5з698567 0.0 1018735
15:00−4зюз6107959 0.0 10171105
18:00−5юз61483100 0.0 1014565
21:00−4юз71783100 0.0 1012815
8 марта, пн
пн800:00−3зюз91780100 0.0 1010924
03:00−3зюз9168799 0.0 1010737
06:00−3зюз7149095 0.1 1009635
09:00−2зюз8138982 0.1 1008679
12:00−1юз9149596 0.2 1007965
15:000зюз10159398 0.8 10061128
18:00−1зюз9178893 0.1 1006836
21:00−6сз7147596 1.1 1011733
9 марта, вт
вт900:00−10сз511836 0.0 1013262
03:00−12зсз348732 0.0 101468
06:00−11з2386100 0.0 101550
09:00−9з117899 0.0 1015111
12:00−6в2270100 0.0 1014363
15:00−6в3493100 0.7 1012353
18:00−7ссв3695100 0.7 1011279
21:00−9ссз3693100 0.8 1013165